Theta_e
309 309 309 308 309 309 309 308 308 308 306 302 296 294 301 298 296 294 294 295 296 297 286 285 284 282 281 280 283 282 282 282 282 283 282 283 284 284 284 285 283 281 282 279 280 281 284 284 285 284 283 282 283 281 280 281 281 284 283 281 283 284 282 282 284 284 281 281 281 280 280 280 280 280 280 281 282 283 282 282 281 279 273 275 274 272 281
309 309 309 309 309 309 309 308 308 309 305 298 295 298 293 296 296 301 296 294 297 301 290 287 282 280 279 281 281 282 282 282 281 281 282 283 283 286 283 282 282 283 280 282 281 281 283 284 284 284 282 284 281 281 281 279 283 283 284 283 285 282 283 281 282 284 284 281 281 280 277 279 281 283 282 281 280 280 279 278 278 278 277 278 278 276 285
310 309 309 309 309 309 309 309 308 308 307 302 298 297 294 295 294 291 296 296 298 293 290 288 284 283 280 279 280 282 282 282 283 283 284 284 283 284 284 284 284 280 278 276 277 275 282 283 281 282 282 284 281 281 280 281 284 284 285 286 285 283 283 282 281 278 277 278 279 282 284 283 283 281 279 279 281 279 280 278 277 277 276 276 277 280 287
309 309 309 309 309 309 308 308 309 308 308 303 298 293 295 295 290 293 295 293 292 287 286 288 287 282 279 282 282 282 283 283 281 282 283 283 282 282 284 282 283 281 280 279 277 277 276 281 282 283 284 282 281 281 281 282 284 283 284 284 284 280 278 280 284 283 283 285 285 285 285 283 281 281 279 280 281 282 282 282 278 278 278 275 280 283 285
309 309 309 309 309 309 308 308 308 308 308 302 295 291 294 293 293 289 291 293 291 287 287 285 287 288 287 287 282 281 282 282 282 281 281 283 282 282 283 282 283 282 283 280 277 272 275 276 276 281 284 282 282 280 281 282 285 286 284 284 282 280 280 281 279 281 284 286 285 284 283 281 283 282 281 281 280 280 280 279 279 282 278 277 283 283 281
310 309 309 309 309 309 309 308 308 308 308 301 299 294 290 292 288 289 285 288 288 292 289 286 285 284 287 284 282 283 282 281 282 281 282 281 280 282 282 282 283 286 286 283 284 276 275 273 281 280 279 281 280 281 280 282 282 285 283 283 282 281 279 279 277 279 282 282 282 282 281 281 281 281 282 281 281 279 278 279 283 281 279 280 282 280 281
310 310 310 309 309 309 308 308 308 307 307 300 299 294 288 290 287 288 284 290 283 285 284 285 287 286 285 285 283 281 282 283 284 283 282 282 283 283 283 284 285 285 283 286 285 279 283 282 277 279 281 282 282 282 280 281 282 283 281 280 277 281 279 278 277 278 279 281 281 282 280 280 280 280 280 281 281 280 280 281 282 282 281 283 284 284 283
310 310 310 310 309 309 308 308 308 308 305 299 299 292 295 292 292 289 286 286 283 284 285 284 288 287 286 286 284 285 283 284 282 281 283 282 282 283 282 284 283 284 283 284 287 286 287 287 283 283 282 279 281 284 285 282 281 282 281 279 276 280 280 279 275 276 281 282 279 278 280 280 279 281 282 281 281 281 281 281 281 282 281 281 282 281 280
310 311 310 310 309 309 308 307 308 307 303 297 293 289 291 290 288 291 291 290 286 286 285 287 288 288 286 288 282 283 283 285 285 284 286 286 284 281 286 286 281 282 282 283 285 290 288 289 288 286 286 286 287 285 283 286 281 280 278 279 277 279 280 275 275 278 280 279 279 280 280 280 278 278 280 281 280 278 279 278 281 280 279 281 279 278 280
311 310 310 310 309 309 308 308 307 306 302 293 293 292 289 290 289 290 294 288 286 287 283 284 285 288 289 289 286 286 288 286 285 286 285 283 285 286 288 284 286 281 282 283 287 289 288 289 287 287 286 286 284 284 285 286 284 281 281 280 281 279 280 278 278 277 279 280 278 280 279 279 281 283 285 282 281 281 281 282 282 282 284 280 278 281 288
310 310 310 310 309 309 309 308 307 305 301 296 293 289 288 294 295 294 294 292 286 285 287 286 286 291 287 287 284 280 282 282 285 288 285 284 284 282 286 285 287 285 283 287 287 288 287 285 284 285 284 284 282 282 284 283 283 283 282 277 276 276 279 278 278 276 279 277 277 277 280 281 284 285 284 283 282 281 280 282 281 282 283 284 287 288 290
310 310 310 309 309 309 308 307 306 303 302 298 297 294 291 291 292 294 293 292 289 281 286 288 289 287 288 287 286 285 283 283 285 285 285 283 283 282 284 284 285 287 285 284 285 285 285 286 286 285 283 281 280 280 281 281 279 281 281 281 277 278 278 278 276 275 278 277 278 280 277 283 285 283 285 284 285 285 284 285 286 284 284 285 285 286 287
310 310 310 310 309 309 309 308 307 303 298 294 295 296 290 288 295 291 291 292 287 284 286 287 281 282 284 284 284 283 283 283 284 285 284 284 283 283 285 285 285 285 285 284 285 286 285 282 280 279 277 280 280 281 278 277 277 279 280 281 281 278 278 275 274 276 277 277 278 275 282 286 287 283 282 283 283 283 283 282 286 286 285 284 284 286 288
311 310 310 310 309 309 309 308 307 305 299 298 299 294 289 289 293 290 292 291 288 284 285 285 283 284 284 284 285 282 283 283 283 284 285 284 285 284 285 285 284 284 285 286 285 284 282 282 281 280 279 277 276 276 274 273 274 276 277 279 280 281 278 278 278 275 275 275 275 279 282 282 285 282 283 282 284 283 284 283 287 289 287 286 285 287 288
310 310 310 309 309 309 309 309 307 306 302 298 293 290 290 290 292 294 289 292 287 284 284 289 288 287 287 284 285 284 284 284 284 284 282 283 283 283 283 283 284 285 284 284 284 283 282 281 279 279 281 280 279 278 277 274 273 275 275 276 277 280 279 280 278 276 277 276 276 277 277 277 285 286 285 285 284 287 286 285 284 291 291 289 288 287 289
310 310 309 309 309 309 309 309 308 306 304 299 298 294 293 292 291 291 293 292 288 285 287 291 290 287 286 284 285 288 286 284 285 284 284 283 281 282 283 284 283 283 283 280 281 281 280 280 276 275 279 276 276 276 278 277 275 273 275 276 277 276 277 278 279 278 275 273 273 273 272 281 286 285 286 285 284 285 285 283 282 292 291 290 289 289 290
310 310 309 309 309 309 309 309 308 307 304 302 299 296 298 291 293 294 292 290 290 290 289 289 289 288 285 284 284 284 285 286 285 288 284 284 282 281 282 284 283 284 282 284 281 282 279 274 272 276 276 273 275 277 277 276 276 274 273 276 273 275 277 277 275 271 273 272 272 275 277 280 285 285 286 285 283 285 285 280 283 292 291 290 289 289 290
310 310 309 309 309 309 309 309 308 307 305 305 300 297 296 291 290 291 293 291 287 287 286 289 290 288 288 288 287 286 285 284 283 284 284 279 279 281 281 282 283 284 285 283 276 278 272 274 279 277 280 277 275 276 280 279 275 279 274 274 275 275 274 275 275 275 275 274 275 275 278 284 286 286 285 283 284 285 279 278 288 294 292 289 290 290 292
310 310 309 309 309 309 309 309 308 308 306 304 299 298 298 291 290 292 291 288 287 287 291 287 289 292 291 290 290 286 288 290 289 287 282 283 283 283 283 283 287 282 283 281 278 280 279 277 273 275 280 276 274 280 277 277 280 270 273 271 270 271 271 271 271 271 274 275 273 276 279 286 288 286 287 285 284 279 281 292 293 295 293 290 290 291 292
310 309 309 309 309 309 309 309 308 308 307 305 303 299 298 292 291 292 291 288 286 287 288 287 288 291 289 292 287 287 286 287 287 288 285 286 281 283 286 282 285 283 280 281 280 277 278 279 280 274 275 277 277 278 276 277 277 276 275 280 281 279 274 274 272 273 271 270 271 273 277 286 285 285 284 284 283 288 294 292 291 292 292 293 292 291 292
310 310 309 309 309 309 309 309 308 308 307 305 304 298 298 294 292 292 292 292 289 286 289 288 286 290 291 291 295 295 292 292 287 287 288 286 285 286 283 282 286 283 282 282 281 279 278 278 274 275 279 280 280 277 278 276 277 281 282 281 280 283 280 277 274 276 279 272 272 278 289 288 287 289 287 285 288 296 295 292 292 294 294 293 292 292 293
310 310 309 309 309 309 309 308 308 308 307 306 304 300 297 295 290 292 291 293 290 287 290 288 289 290 292 293 293 294 296 295 295 294 287 284 284 287 285 282 285 285 282 281 278 276 278 276 275 274 277 277 276 280 276 278 279 279 276 281 280 284 284 284 284 281 280 281 282 288 287 287 288 292 295 296 293 293 293 292 292 291 292 293 291 291 293
310 309 309 309 309 309 309 308 308 308 307 307 304 300 298 294 294 293 294 294 294 294 292 290 290 290 293 293 293 293 294 294 292 288 294 289 285 284 283 286 286 286 282 285 288 287 285 280 281 283 279 280 280 276 273 279 280 278 280 283 285 286 288 285 284 284 286 287 288 290 290 289 287 289 292 292 294 295 294 292 291 292 292 293 291 292 292
310 309 309 309 309 309 309 308 308 308 307 307 305 301 298 296 296 294 294 291 288 288 291 290 291 290 292 293 296 294 292 290 292 293 292 294 287 284 284 286 286 283 283 284 288 287 282 281 281 280 280 282 280 279 277 276 278 281 279 280 282 284 286 284 283 284 283 282 290 289 289 290 291 291 291 291 291 291 292 292 292 292 292 293 293 292 292
310 309 309 309 309 309 309 308 308 308 308 307 305 304 299 295 295 298 294 288 287 287 286 287 287 293 292 291 291 292 293 294 294 292 292 291 294 290 287 289 288 290 286 285 281 285 281 282 277 277 278 284 285 282 284 282 282 282 280 282 282 283 287 283 284 284 283 284 289 290 291 291 291 291 291 291 292 292 292 291 291 292 293 293 292 292 291
309 309 309 309 309 309 308 308 308 308 308 307 306 301 299 299 298 297 294 290 286 286 284 285 288 292 291 292 292 295 294 294 294 293 294 293 293 293 289 285 285 285 284 283 286 287 282 279 279 280 280 283 287 283 281 284 284 284 282 285 287 286 285 282 284 283 285 287 288 289 289 289 290 291 292 292 292 293 293 293 293 292 290 291 291 291 291
309 309 309 309 309 309 308 308 308 308 307 307 305 303 302 301 298 298 296 291 291 288 286 286 288 286 289 290 293 292 292 294 293 293 292 291 290 290 290 290 288 287 287 283 281 279 277 279 278 282 282 283 281 281 280 282 282 282 281 284 284 284 282 285 283 281 282 283 287 290 286 288 292 292 292 292 293 293 292 292 291 291 290 291 290 290 291
309 309 309 308 308 308 308 308 308 308 308 307 306 305 304 301 298 301 300 297 295 289 285 283 286 288 291 289 292 293 292 293 293 293 292 291 290 291 291 290 288 286 284 286 281 281 281 281 282 281 279 277 280 281 279 281 280 280 281 283 286 284 286 286 283 284 284 290 292 292 293 292 293 294 295 294 293 292 291 291 292 293 293 293 291 290 291
309 309 309 308 308 308 308 308 308 308 308 307 305 303 302 302 301 301 302 301 298 289 287 287 288 287 288 289 291 291 290 292 292 292 292 290 290 290 290 289 289 289 284 281 281 280 280 283 283 282 282 285 283 280 279 278 278 279 283 286 286 288 290 290 289 290 291 293 294 294 292 290 293 294 294 294 294 292 291 292 292 292 292 292 291 291 290
309 309 309 308 308 308 308 308 308 308 308 306 303 295 293 293 301 299 301 301 299 294 288 288 285 288 290 288 288 288 287 289 290 291 290 289 289 289 289 289 288 289 286 285 284 284 282 280 277 279 280 285 285 281 278 278 277 281 287 288 288 289 289 290 291 290 289 293 294 294 293 293 294 293 293 293 293 293 292 292 292 292 292 292 291 291 292
309 309 308 308 308 308 308 308 308 308 307 304 299 291 289 288 294 301 301 300 300 295 289 289 287 291 290 289 288 290 288 288 288 289 289 290 289 288 288 289 288 288 285 281 281 283 279 280 278 281 281 283 286 280 280 275 277 280 286 289 289 289 289 289 291 292 292 292 293 293 292 292 293 292 291 292 292 293 292 292 292 290 291 291 291 291 291
308 308 308 308 308 308 308 308 308 308 307 303 297 295 292 294 299 301 302 301 300 293 288 287 287 288 287 289 286 286 289 288 286 286 287 289 286 289 287 289 287 289 289 286 282 280 281 280 281 281 282 287 287 280 277 279 280 281 287 289 290 290 290 291 291 291 292 292 291 289 288 289 291 289 290 293 294 294 293 293 293 293 290 290 291 291 291
308 308 308 308 308 308 308 308 308 307 305 306 307 305 302 302 302 303 302 301 297 289 291 289 285 287 286 286 286 286 288 288 287 288 286 289 286 287 285 285 284 286 291 286 281 282 282 279 281 281 284 288 284 279 277 280 282 286 288 289 289 289 290 291 291 292 292 292 291 288 288 290 292 292 292 292 292 292 292 292 292 292 291 290 289 290 290
308 308 308 308 308 308 308 308 308 307 307 305 298 301 303 302 303 303 303 300 291 290 289 288 285 285 285 288 284 286 290 287 285 288 284 287 285 287 285 284 285 283 286 285 286 284 283 280 281 281 281 282 284 278 277 281 285 286 288 289 290 290 290 289 290 290 291 291 291 291 291 292 293 293 293 292 292 293 293 292 291 289 289 289 289 290 291
308 308 308 308 308 308 308 308 306 303 299 300 301 303 303 302 302 303 302 298 290 288 288 287 288 284 284 285 285 286 290 287 284 287 286 286 287 286 284 284 286 283 285 291 284 284 283 283 284 281 280 282 280 278 280 283 286 287 287 288 289 289 289 288 289 290 291 292 292 292 292 292 291 290 291 291 291 292 291 291 291 289 288 289 290 290 291
307 308 308 308 308 308 307 306 304 299 297 297 299 302 302 302 302 303 303 302 293 288 287 287 288 284 286 282 283 286 290 285 284 282 282 286 285 285 284 285 281 284 284 284 282 283 283 286 283 281 284 279 279 281 284 286 286 287 288 288 290 289 289 289 290 291 292 291 290 291 291 291 290 290 291 291 291 291 291 290 290 290 289 289 289 290 290
307 307 307 307 306 298 295 295 301 302 299 304 303 303 302 302 296 297 295 294 290 292 288 288 286 286 288 286 286 285 289 282 287 284 285 284 284 286 285 283 282 286 284 283 282 281 284 288 283 282 282 279 282 287 288 288 288 288 289 290 291 291 291 291 291 291 290 290 289 289 290 289 289 290 290 290 290 291 290 289 289 289 287 288 288 288 289
307 306 304 295 293 291 290 293 294 302 302 301 301 297 292 294 288 290 288 287 289 291 288 289 288 290 290 288 285 290 288 285 288 283 284 286 284 282 287 284 284 287 279 282 283 288 284 283 282 281 282 287 289 289 289 290 290 291 291 291 291 292 291 291 291 289 287 287 287 288 288 288 288 289 289 290 290 289 290 290 290 291 290 290 290 291 290
305 300 293 292 292 290 292 292 302 302 302 298 292 287 285 286 286 284 284 286 286 285 289 289 286 291 288 287 288 290 288 286 283 285 281 287 283 279 286 278 285 285 280 281 282 289 282 282 281 280 281 285 286 288 291 291 291 292 292 292 293 292 292 292 291 290 289 289 291 293 292 291 290 291 292 291 291 291 291 290 290 290 289 290 289 288 288
296 294 292 292 293 292 298 301 302 300 295 288 288 288 283 286 284 281 287 281 282 286 288 284 290 290 290 288 287 285 290 287 282 282 283 284 290 283 287 282 285 283 275 279 282 288 281 279 282 279 281 287 288 291 291 291 291 292 292 293 293 293 293 292 292 292 292 293 293 293 294 294 293 293 292 292 292 291 291 289 289 289 288 288 288 288 288
293 291 291 292 290 293 298 301 293 289 287 285 286 285 285 281 285 286 285 280 284 285 289 287 290 288 290 291 290 286 290 289 289 289 287 283 289 286 283 280 287 281 277 279 283 284 279 279 280 282 285 290 289 291 291 291 291 292 293 293 293 293 293 293 293 292 291 291 292 292 292 291 290 290 291 290 290 290 290 290 289 289 288 288 288 288 289
295 294 292 293 292 295 296 290 288 286 285 286 284 281 285 284 286 281 284 282 283 287 286 288 286 288 288 290 289 290 288 289 288 287 286 282 288 285 283 283 284 281 278 284 286 280 281 279 282 284 289 290 290 288 288 289 290 290 291 292 292 292 293 292 292 293 292 292 292 292 293 291 290 289 289 289 289 288 288 288 288 288 288 288 289 288 288
299 296 297 292 293 291 289 287 287 287 282 281 281 278 285 280 282 282 283 286 287 288 286 288 285 291 290 293 288 291 288 290 288 287 286 283 289 285 283 283 282 279 283 286 282 279 278 277 281 286 290 287 287 287 289 290 291 291 292 292 292 293 293 292 292 292 292 292 291 292 292 290 290 290 289 288 288 288 288 288 288 288 288 288 288 288 288
294 294 292 289 288 287 290 280 288 284 278 284 282 278 282 280 280 284 281 284 286 284 287 286 286 289 285 292 289 287 287 287 289 287 286 288 286 281 284 279 282 286 287 280 280 280 282 285 287 289 288 286 286 287 288 288 289 290 291 291 291 291 291 291 291 291 290 291 290 290 289 289 289 289 289 288 288 288 288 289 289 288 288 288 287 287 288
291 289 288 288 285 286 288 277 289 282 276 282 285 284 285 282 283 286 284 290 288 285 289 288 289 289 287 289 288 287 289 285 291 287 281 287 282 284 283 280 286 284 282 279 281 282 283 283 289 290 291 291 291 288 287 288 288 289 290 290 289 290 289 289 290 290 290 290 289 289 288 289 288 288 288 288 288 288 288 288 289 289 288 288 287 287 288
291 287 286 284 280 285 285 277 286 276 279 287 286 286 287 288 288 287 290 288 286 288 287 288 289 289 287 290 287 285 288 286 286 285 286 286 281 279 285 285 285 279 280 282 279 279 282 286 289 290 292 292 292 292 288 287 288 288 288 288 291 289 288 288 289 289 290 290 290 289 289 289 288 288 288 289 289 288 288 288 288 288 288 287 287 288 288
290 289 287 285 284 285 286 280 285 284 286 288 289 289 290 290 291 291 291 289 290 291 289 289 290 290 288 287 286 285 286 287 284 286 287 279 281 284 287 281 278 280 278 278 280 281 285 288 291 292 292 290 289 289 288 288 288 288 288 291 292 291 290 289 289 289 290 290 289 289 289 288 288 288 288 288 288 288 288 288 288 288 288 288 288 288 288
286 288 289 282 280 284 285 284 289 288 287 289 289 291 291 292 290 289 289 290 292 291 288 288 286 287 287 289 289 285 286 287 284 284 287 282 286 280 279 280 279 282 283 281 282 287 288 290 292 292 291 290 290 289 288 288 289 289 289 290 290 290 290 289 289 289 289 289 288 288 289 288 288 288 288 288 288 288 289 288 288 288 288 288 287 287 287
289 287 284 282 286 287 286 289 290 287 287 289 289 290 289 289 289 290 291 290 289 289 290 290 288 289 284 288 286 285 283 286 282 280 286 281 281 277 279 277 278 278 283 286 286 288 290 292 293 290 288 288 289 289 290 289 289 289 289 289 290 290 290 289 289 289 289 288 288 288 288 288 288 288 287 287 287 288 289 289 288 287 288 287 288 288 288
286 284 285 283 283 284 284 288 289 287 288 289 287 288 289 289 289 291 292 289 289 290 289 288 290 288 284 288 279 282 283 286 284 286 284 278 281 282 282 278 281 281 283 288 288 290 292 293 292 290 290 289 288 288 288 289 288 289 289 290 290 290 289 289 288 289 288 288 288 288 288 288 288 287 287 287 288 289 288 288 288 288 287 288 287 287 287
286 285 285 288 286 285 288 284 284 285 287 287 286 287 288 288 289 289 291 290 289 289 288 286 287 286 283 284 279 279 280 287 285 282 283 282 285 283 280 280 283 287 288 291 291 292 292 292 292 292 291 290 290 289 289 289 289 289 289 289 289 289 289 288 288 289 288 288 288 287 287 288 288 288 288 288 288 287 287 287 287 287 288 288 288 287 287
285 282 280 285 287 287 289 289 289 290 289 289 289 289 290 288 290 291 293 291 289 287 285 288 288 284 281 281 282 286 287 286 281 283 283 284 287 284 283 285 287 289 290 290 291 292 292 292 292 290 291 291 291 291 290 289 289 289 289 289 288 288 288 288 288 288 288 288 288 287 288 288 288 288 288 287 287 286 286 288 289 289 288 289 289 288 288
Wind_Speed
6 8 9 10 11 13 14 15 16 17 17 4 4 1 2 2 1 1 3 3 2 9 6 0 3 4 1 4 1 1 1 1 0 1 1 0 1 1 1 1 2 1 1 2 1 2 1 1 0 1 0 1 1 3 1 1 1 2 2 1 1 2 0 2 4 0 4 5 3 3 2 1 1 2 1 2 2 1 2 2 1 2 2 2 2 4 8
5 6 8 9 10 11 12 13 14 15 12 2 2 3 2 1 2 2 1 0 1 1 0 1 1 1 2 0 1 2 0 1 2 0 1 1 1 1 2 1 3 3 1 1 3 2 1 2 2 1 2 1 3 3 2 2 1 2 2 1 3 1 1 1 4 2 2 2 1 1 1 1 3 2 4 2 3 4 4 5 1 2 6 4 1 7 2
5 5 7 8 9 9 10 11 13 13 11 2 1 1 1 1 0 1 4 5 2 1 0 6 4 2 4 2 2 1 1 2 2 1 1 1 0 1 1 2 3 3 1 3 2 2 1 1 1 2 3 1 1 1 1 1 1 0 2 1 1 2 1 1 3 5 7 6 6 5 4 1 2 1 2 4 7 8 4 2 2 3 1 4 4 7 6
5 5 6 7 8 9 9 10 11 12 11 5 2 2 0 0 1 2 2 7 6 5 2 3 5 7 4 3 1 0 2 0 1 1 2 1 1 2 3 1 1 4 1 2 2 2 3 1 1 2 2 2 1 0 1 1 1 3 1 2 1 0 1 2 2 3 6 7 4 3 1 1 4 5 7 7 7 6 3 2 2 6 3 7 14 10 15
5 5 5 6 7 8 9 10 11 11 9 5 3 3 2 1 2 1 1 2 5 3 2 2 2 4 5 2 4 2 1 2 1 2 0 2 0 1 2 3 4 1 1 2 1 1 3 3 0 2 2 2 2 1 1 0 1 4 2 2 1 1 2 5 5 9 12 8 7 2 2 11 15 10 8 9 10 9 9 8 6 6 2 11 7 10 10
5 5 4 5 5 7 8 9 10 10 10 1 1 2 4 0 0 1 1 0 1 0 2 3 3 4 1 1 2 4 3 2 2 0 0 1 1 0 0 1 4 6 3 6 2 1 1 2 2 1 1 2 2 2 1 2 2 2 1 2 2 0 2 2 3 7 11 9 11 7 8 12 13 10 8 9 12 11 13 15 10 8 8 13 2 4 6
6 6 5 5 5 6 6 8 9 10 11 2 1 1 1 2 1 2 2 0 0 1 0 2 5 6 3 2 2 3 4 6 3 2 2 0 1 4 1 5 8 6 1 1 1 3 1 2 1 3 2 2 4 2 1 2 1 2 1 0 1 1 3 1 1 10 12 13 13 9 10 10 9 12 12 13 12 16 18 17 13 15 18 18 18 18 22
6 6 5 4 4 5 5 7 9 10 12 1 2 3 1 1 1 0 2 4 3 0 1 1 1 2 1 2 3 6 8 5 2 2 3 2 2 2 2 3 4 5 5 3 2 6 4 2 1 5 5 0 3 2 2 4 1 1 2 1 1 1 1 3 2 3 6 2 4 3 7 7 12 10 11 12 12 13 15 13 13 12 16 22 22 19 19
7 6 5 4 4 4 4 6 8 10 10 3 4 1 2 1 0 2 4 2 1 0 1 1 1 1 0 1 2 2 5 6 7 4 3 2 5 7 6 7 7 2 3 2 7 4 5 4 2 9 6 1 4 3 2 6 6 5 2 2 1 1 1 2 0 4 4 3 1 4 9 11 11 17 11 10 11 10 11 12 13 11 14 8 4 9 12
7 7 6 4 4 2 3 4 6 9 6 4 2 1 1 2 1 1 1 2 2 0 1 0 0 1 2 2 5 4 7 3 5 1 2 2 2 4 5 6 6 1 3 11 8 3 5 3 1 3 2 3 4 3 3 2 5 6 5 2 3 2 2 1 1 3 6 1 4 10 12 11 4 3 5 13 12 9 4 8 7 16 12 6 7 10 11
8 7 6 5 5 4 3 3 4 8 5 3 2 1 3 2 2 1 2 2 0 0 0 0 0 0 3 1 4 1 0 5 6 3 1 3 1 1 2 8 4 1 7 2 3 3 6 8 7 5 7 7 6 3 5 8 5 1 7 3 0 1 2 1 1 2 4 6 10 8 5 3 1 0 3 8 9 12 11 9 13 15 13 11 8 10 10
9 8 7 6 5 4 2 1 2 5 4 0 0 1 4 2 3 3 1 1 0 0 1 3 3 2 4 4 2 6 5 7 7 1 0 2 2 1 2 0 1 1 2 2 5 10 9 6 7 8 9 9 6 7 7 6 5 4 2 1 5 4 3 2 1 1 4 4 7 3 1 2 4 3 5 0 1 8 14 17 10 11 16 17 16 17 16
10 9 8 7 6 5 3 3 2 3 4 2 1 2 1 2 0 1 2 2 2 3 2 2 1 1 1 5 4 2 1 3 3 3 3 5 3 3 2 2 3 1 4 8 6 4 3 1 3 2 2 3 3 5 8 7 5 5 4 3 2 4 3 3 1 1 2 1 2 5 4 3 5 2 1 2 2 2 5 11 14 15 16 17 17 18 17
11 10 9 8 7 7 5 3 3 4 5 2 2 1 1 2 1 2 1 1 0 1 1 1 1 1 5 3 4 4 3 3 2 2 2 3 3 5 2 2 2 1 3 3 3 2 1 1 1 1 1 1 0 0 1 4 5 5 5 4 4 2 3 1 1 2 2 0 1 8 11 14 2 4 4 6 4 7 2 3 11 5 12 14 15 16 15
12 11 10 9 9 8 7 6 5 5 5 4 4 2 1 1 1 0 1 1 1 1 2 4 4 8 8 5 6 5 1 2 3 1 2 1 3 2 2 2 1 2 1 2 1 1 0 1 1 1 2 0 1 1 2 0 2 5 3 3 3 2 2 1 1 1 1 3 5 3 2 2 2 2 1 2 2 3 5 3 12 12 9 14 15 15 16
13 12 11 11 10 10 9 8 7 6 6 6 3 1 2 1 1 2 2 3 4 2 6 10 6 7 8 3 5 4 4 4 2 2 1 1 2 2 2 2 2 0 2 4 1 2 0 1 3 2 2 1 0 1 2 0 1 3 4 3 3 3 3 1 2 1 0 1 2 1 3 5 3 5 6 3 3 5 2 1 7 4 5 12 15 15 12
15 14 13 12 12 11 11 10 9 9 9 7 1 1 1 3 1 0 1 2 1 5 3 7 7 7 7 4 1 2 4 2 5 3 2 2 3 2 3 1 2 0 0 0 0 1 0 1 0 1 2 3 3 2 0 0 2 1 3 4 7 2 0 0 1 1 3 1 1 4 4 7 3 6 4 5 5 4 2 5 2 4 6 7 9 11 10
16 16 15 14 13 13 12 11 11 10 10 7 3 1 1 2 2 1 1 2 3 3 4 11 11 4 4 6 5 2 5 4 3 1 2 1 1 3 4 2 2 2 2 1 0 2 1 2 3 3 3 1 0 2 3 3 2 2 5 5 4 1 1 2 6 1 3 6 4 3 7 10 7 9 6 5 5 3 1 4 5 4 5 6 8 9 9
17 17 17 16 15 15 14 13 12 11 11 9 4 2 2 2 2 2 2 1 2 4 1 4 5 2 2 5 5 5 3 5 6 4 2 1 2 3 7 2 1 2 1 2 1 2 3 3 2 0 3 1 0 4 1 1 3 3 6 4 1 1 2 0 2 4 5 4 4 4 7 11 6 0 10 9 5 2 5 5 0 3 3 6 8 9 8
17 17 17 17 16 15 15 14 13 13 12 12 6 3 1 1 2 2 2 3 0 3 2 7 7 8 7 7 8 4 2 2 2 4 4 3 0 6 4 1 1 3 1 1 3 1 2 3 3 1 2 2 3 3 0 5 1 8 6 4 2 6 6 5 4 3 2 1 1 3 5 1 8 14 8 3 3 6 2 0 4 5 4 6 7 7 9
18 17 17 17 16 16 16 15 14 14 14 15 8 4 3 1 1 1 1 1 1 2 5 2 1 5 6 6 7 10 14 9 9 3 2 2 8 4 4 7 9 6 7 7 7 4 4 3 2 3 1 1 2 1 3 1 4 6 5 4 4 7 3 1 3 6 2 4 6 7 4 4 12 13 6 10 14 8 3 0 8 10 9 8 7 9 10
20 19 19 18 17 17 17 16 16 15 15 15 10 4 4 1 1 1 1 1 3 4 1 2 3 4 7 6 5 5 3 2 6 3 10 5 4 3 1 2 7 6 3 3 3 1 1 1 2 0 3 1 2 4 2 2 3 1 1 0 5 15 7 7 3 7 8 8 10 8 2 6 14 11 11 9 12 11 11 8 9 9 10 10 7 11 11
20 20 20 20 19 19 18 18 17 17 17 17 12 6 7 4 2 1 0 3 3 4 1 2 1 6 5 9 9 8 6 2 4 2 5 8 2 3 2 3 3 2 1 2 3 2 3 6 5 2 0 3 7 3 2 2 3 1 5 11 4 4 10 5 1 5 5 15 14 7 7 8 11 12 12 13 13 10 7 9 9 9 11 7 10 11 12
21 21 20 20 20 20 20 19 19 18 18 18 14 8 5 4 6 5 3 3 1 3 5 3 1 6 11 14 5 7 4 4 9 6 1 2 6 1 1 6 2 1 1 5 0 2 3 2 1 2 4 2 4 3 6 5 7 3 3 4 4 6 7 5 6 0 4 11 6 14 18 17 14 13 15 14 13 13 9 10 11 13 11 11 10 11 11
22 21 21 21 21 21 20 20 20 20 19 20 14 2 6 3 3 5 5 3 1 2 6 2 7 6 2 1 3 1 8 3 6 7 7 3 5 6 8 5 8 5 6 5 3 4 1 3 1 2 5 4 7 4 1 2 5 7 8 7 1 3 8 5 12 4 7 18 7 7 7 10 9 7 8 11 12 11 10 12 12 13 12 11 12 11 12
23 22 21 22 21 21 22 21 21 21 21 21 17 10 11 8 8 4 5 4 2 1 3 5 3 3 2 2 4 2 2 8 8 9 9 6 4 2 8 5 2 4 5 2 1 4 3 1 1 1 3 5 7 3 4 5 0 2 9 12 4 3 7 6 6 7 11 16 22 20 13 20 22 18 15 14 13 13 15 15 14 15 13 11 11 10 12
23 23 22 22 22 22 22 22 22 22 22 21 14 8 8 6 8 11 9 5 3 5 3 7 3 4 2 3 2 2 1 4 5 7 6 5 6 4 6 7 9 3 4 2 2 2 1 1 1 6 4 3 2 2 2 1 2 3 8 8 4 5 11 5 3 5 7 12 14 7 2 8 8 10 11 11 12 11 12 11 12 12 12 10 11 13 13
24 24 24 23 23 23 22 23 22 23 22 22 14 10 8 9 10 10 8 7 10 4 0 2 3 3 1 6 3 1 1 3 5 7 8 7 7 9 9 10 8 4 3 4 1 2 2 5 8 1 1 0 2 4 2 2 3 4 15 13 10 13 17 8 10 8 10 17 13 8 12 14 14 14 10 8 9 9 12 15 16 15 14 12 12 12 14
25 25 25 25 24 25 24 23 23 22 22 18 9 8 8 8 8 11 11 8 4 1 1 3 3 2 6 2 2 2 4 2 6 7 7 7 8 9 10 11 10 6 3 1 1 1 3 4 2 5 4 6 3 2 5 5 5 12 24 8 14 22 13 15 19 11 13 22 18 7 7 12 14 8 8 11 10 11 15 16 14 15 16 15 12 13 13
25 25 25 26 26 26 26 25 24 23 22 13 8 3 5 4 8 10 11 10 7 4 3 3 5 4 2 1 1 2 2 2 4 5 7 7 7 8 8 9 5 5 3 3 4 6 3 1 2 2 3 3 4 1 4 2 5 13 23 14 18 15 18 22 20 14 18 20 10 10 12 15 12 10 10 10 15 14 14 14 14 16 15 13 13 14 13
25 25 26 26 27 26 27 27 26 26 23 12 8 4 6 8 8 13 14 10 7 5 1 1 7 3 5 1 2 7 7 5 4 5 6 5 5 4 2 2 1 5 5 1 1 3 2 4 2 3 1 6 5 4 4 6 5 4 28 19 15 16 17 22 18 16 21 21 18 16 14 15 12 13 17 17 20 19 18 15 15 14 15 12 13 12 15
25 26 26 26 26 27 27 28 28 27 17 15 16 12 6 4 10 18 19 12 9 4 3 1 4 3 4 2 0 1 5 5 4 3 2 2 2 1 1 2 4 2 4 3 2 1 4 2 2 3 4 5 5 2 3 5 8 21 27 6 15 15 16 17 16 17 15 17 15 17 20 19 14 15 16 16 12 15 13 13 13 12 10 10 10 12 14
24 23 24 25 26 26 27 27 29 24 17 20 21 12 3 16 30 28 19 13 6 2 2 2 6 1 3 5 2 2 5 4 2 2 1 2 4 3 3 2 1 0 2 1 3 5 1 3 1 3 4 6 6 3 6 10 18 33 27 7 6 9 12 13 14 14 12 11 9 13 19 21 11 13 17 16 12 14 15 15 15 12 10 13 14 16 16
23 24 25 25 26 26 27 28 28 30 20 12 12 17 7 13 23 26 20 11 4 2 2 3 4 6 5 2 0 2 7 7 4 6 2 1 0 2 2 1 1 1 3 7 2 0 1 1 3 2 3 7 2 1 9 16 27 33 25 16 16 11 8 10 13 15 16 12 11 15 20 21 20 16 15 17 18 17 15 14 13 14 15 12 14 14 13
22 23 23 24 24 25 26 25 17 13 13 10 10 2 9 14 20 28 24 13 7 2 3 4 2 5 6 4 6 4 5 6 4 6 6 1 1 3 1 3 2 4 4 4 2 3 2 4 3 2 9 4 4 13 13 21 31 25 19 17 20 16 15 17 23 24 19 15 15 17 19 20 20 21 20 17 15 14 14 14 12 12 13 13 12 15 15
21 22 22 22 24 21 13 14 9 7 8 12 7 15 24 19 21 17 17 8 5 7 6 6 6 13 10 9 8 3 7 3 2 5 2 2 1 0 1 1 4 6 1 2 5 1 4 3 3 10 5 6 18 14 20 25 24 20 13 19 18 14 18 23 24 21 10 10 12 15 17 17 17 22 20 17 14 14 14 14 14 13 15 15 15 15 13
19 19 20 19 9 1 4 5 5 11 9 5 10 20 23 18 2 3 3 4 3 1 4 5 8 13 13 5 2 4 8 6 3 4 2 4 6 2 2 2 6 1 2 5 5 5 2 2 3 12 10 18 20 12 18 20 23 19 16 18 16 13 17 18 18 16 17 16 14 14 15 17 17 16 17 18 16 14 11 13 16 13 13 16 14 12 13
16 16 6 2 3 3 1 5 5 9 24 27 23 11 1 3 5 3 1 1 3 2 3 1 14 7 4 9 10 6 7 4 4 7 4 4 5 3 3 4 4 3 8 5 5 7 3 3 7 10 23 23 12 12 16 23 19 15 18 17 16 15 15 16 13 12 15 18 17 19 17 15 16 18 16 18 17 12 15 14 13 12 12 14 14 14 13
12 4 3 3 4 5 7 3 14 25 13 2 5 4 1 0 4 2 4 2 1 5 5 8 16 12 10 11 4 3 6 10 9 5 7 7 5 4 4 6 4 3 5 3 5 10 5 6 5 6 19 21 9 19 23 19 15 17 18 16 16 17 16 16 15 19 20 21 23 22 13 12 15 16 11 11 13 12 11 10 11 11 12 13 12 11 10
4 5 5 4 8 5 3 14 26 15 5 2 2 4 5 3 5 4 3 4 3 4 4 14 14 9 12 17 14 10 2 11 13 11 8 3 2 6 4 3 3 4 5 6 5 6 6 5 6 6 23 15 9 21 15 11 18 21 18 18 18 19 19 18 17 16 19 23 22 22 21 17 16 15 16 16 15 15 15 9 9 11 10 12 13 10 12
3 2 2 5 3 3 7 10 3 4 4 3 1 1 2 4 4 2 4 6 7 6 6 5 4 7 9 9 9 11 3 2 1 3 4 6 3 5 4 7 4 4 5 8 2 4 2 3 6 13 25 3 8 10 10 14 18 18 16 16 18 19 21 20 20 19 17 19 20 20 20 19 16 15 16 17 17 14 13 13 12 12 12 12 14 15 12
6 5 3 3 3 5 7 2 2 4 1 1 4 5 4 2 3 2 4 10 14 5 5 9 14 13 12 16 12 7 2 3 3 3 4 6 5 6 4 1 1 5 7 4 6 2 3 9 12 20 13 3 6 6 9 12 13 11 16 15 17 19 18 18 20 19 18 20 21 20 18 16 16 14 14 15 14 14 14 13 15 15 15 15 12 11 10
12 8 6 4 2 2 1 4 4 3 6 5 4 4 4 6 8 9 7 4 3 4 4 4 1 5 3 8 0 3 5 4 5 4 5 5 3 3 4 3 3 7 5 5 3 3 8 11 14 22 6 1 6 8 10 13 12 12 15 14 15 16 17 18 19 20 18 19 20 20 19 17 16 15 12 11 12 14 15 14 15 15 15 13 12 11 10
4 4 2 1 2 4 3 8 3 3 2 4 8 11 10 9 7 7 6 7 5 4 5 9 9 15 10 7 9 4 3 1 1 1 1 2 4 5 5 6 8 1 4 2 2 11 17 12 17 14 6 4 6 8 9 9 9 8 11 13 12 13 14 16 15 14 16 14 14 16 14 15 15 15 10 9 12 16 17 16 14 13 14 13 12 13 11
4 3 3 3 5 4 4 6 3 6 11 11 8 11 14 21 18 16 18 6 5 6 5 5 7 11 12 5 3 2 4 6 4 6 6 6 5 5 6 6 4 3 5 6 5 6 7 18 15 14 20 17 14 10 8 7 8 10 11 8 11 15 15 15 18 16 17 14 15 15 14 16 15 15 15 13 13 13 13 16 17 12 11 11 12 13 12
7 7 5 6 8 6 7 5 4 6 5 4 11 12 17 17 15 16 6 4 6 7 12 13 12 9 9 8 9 7 4 4 8 7 4 3 6 8 4 2 2 5 4 5 10 18 23 22 17 20 20 17 17 13 8 9 8 8 8 13 17 13 14 16 17 16 17 15 13 12 15 14 13 13 15 16 13 11 12 14 14 13 12 10 12 15 15
4 2 3 1 6 6 3 10 12 6 7 9 15 12 16 14 14 12 8 8 12 12 7 5 8 9 13 11 5 0 2 3 6 4 5 4 6 2 2 5 6 6 11 16 17 16 18 18 20 23 17 9 11 9 9 11 11 12 15 17 17 15 14 15 17 17 18 15 13 13 13 14 14 13 12 12 14 14 13 12 13 13 12 14 15 13 12
10 2 2 6 6 5 14 9 4 3 5 9 9 12 11 7 8 10 7 9 11 10 11 11 7 3 4 3 2 9 8 6 6 5 5 4 1 2 3 3 6 6 7 11 19 19 20 18 19 16 8 7 9 10 9 12 13 16 18 18 19 20 18 16 17 18 18 16 15 15 15 14 13 12 12 15 15 16 14 11 11 10 11 11 13 13 13
3 3 7 4 2 2 6 7 11 15 11 7 9 11 11 13 14 13 11 7 10 12 15 15 9 8 4 6 7 7 9 5 8 7 4 4 7 8 8 10 13 15 13 14 20 20 20 20 16 6 6 9 10 12 12 13 13 15 17 19 19 21 19 16 16 18 16 14 14 14 15 15 12 11 12 12 12 16 16 14 10 9 10 12 13 15 14
7 6 3 4 2 4 4 1 13 17 9 10 11 13 14 15 16 14 7 8 7 8 5 3 1 6 3 7 5 6 5 6 5 4 9 12 9 5 7 12 11 14 17 16 18 18 18 14 10 10 10 11 10 10 11 12 13 15 15 17 17 15 14 13 14 15 15 15 15 15 15 11 10 11 13 16 15 14 11 10 9 10 11 13 13 13 13
3 4 5 3 11 10 5 11 13 9 11 13 11 12 11 15 15 12 9 8 10 11 10 11 8 7 6 6 5 6 6 4 5 13 11 11 7 8 14 18 16 16 17 16 17 16 14 12 10 11 12 13 11 12 13 14 15 16 16 15 15 13 11 10 13 15 15 15 14 12 12 14 15 14 13 10 9 9 10 12 12 12 13 14 12 13 13
4 7 6 5 8 10 12 9 3 12 11 11 13 11 13 16 14 11 11 12 14 16 16 9 8 7 5 10 8 4 2 5 6 6 11 8 5 12 16 18 16 16 15 15 14 13 14 14 13 14 13 15 15 15 14 15 15 14 13 13 12 11 13 14 15 15 14 12 11 13 14 14 13 10 8 8 9 8 10 12 14 14 14 11 12 13 11
Wind_Direction
319 330 339 342 346 350 351 353 356 3 355 20 3 239 7 59 287 81 353 360 351 64 77 95 45 58 346 298 19 347 24 106 245 231 298 182 287 123 68 117 95 328 170 183 118 241 142 183 57 125 223 246 23 86 85 321 262 260 110 235 162 230 278 282 244 148 95 121 117 151 104 216 197 201 273 178 198 155 288 294 44 271 118 215 176 229 258
307 323 333 339 344 347 349 353 357 2 33 69 246 51 95 174 271 358 106 63 324 96 153 119 48 105 330 106 79 330 215 161 106 282 278 223 175 148 137 141 334 122 191 131 139 234 140 249 171 204 183 143 62 42 44 201 191 269 89 292 123 279 117 285 299 296 162 155 162 197 36 323 253 247 170 208 78 74 88 91 60 272 202 197 198 270 250
298 312 326 334 342 343 345 349 352 359 10 72 285 63 178 114 296 267 306 8 17 117 140 132 134 169 144 137 128 145 66 28 347 302 157 316 325 154 101 18 145 86 96 81 87 353 349 145 310 357 193 127 36 79 355 284 235 334 309 277 27 248 284 289 339 344 336 340 338 343 323 224 173 214 144 188 171 139 165 202 146 249 105 167 220 258 263
288 303 315 326 336 340 342 344 346 352 2 5 92 124 85 53 143 317 355 14 45 80 17 70 127 138 159 102 169 126 99 132 134 214 83 337 89 358 98 71 92 101 162 67 15 46 338 350 150 189 185 168 168 342 351 199 177 175 155 82 257 150 53 247 229 254 278 287 330 115 268 259 236 170 193 183 209 197 230 47 189 242 159 215 231 246 293
271 283 294 311 327 336 339 342 340 343 354 32 103 78 57 175 71 355 330 351 57 74 28 74 98 157 198 124 168 140 88 110 68 188 9 177 274 75 9 170 160 180 165 172 92 12 317 20 152 232 158 93 105 61 356 49 167 192 166 7 96 104 264 214 211 254 254 281 289 212 202 265 272 260 230 181 184 190 193 197 232 130 124 265 242 240 243
254 266 281 295 314 327 335 337 338 334 346 111 140 60 348 76 133 76 181 123 21 48 50 39 85 62 78 75 56 141 140 183 150 235 334 94 263 123 141 164 282 178 157 151 161 171 9 11 210 112 15 133 146 167 263 225 344 295 154 340 253 235 267 57 141 250 258 269 270 262 264 252 257 256 247 211 191 181 202 221 215 160 226 253 128 152 250
250 261 275 284 302 319 328 334 332 337 342 37 155 111 341 53 117 116 284 162 295 25 330 56 103 82 71 106 106 169 181 186 186 160 125 328 178 237 208 235 202 193 190 184 106 165 169 262 239 196 157 200 151 191 137 213 337 206 145 85 348 214 252 293 248 279 273 259 251 250 246 263 260 242 236 236 208 205 212 229 217 210 240 252 273 286 283
244 252 254 265 291 312 332 326 332 332 341 41 54 59 146 189 163 139 3 79 115 108 68 67 37 91 300 118 218 168 183 173 164 291 165 153 237 143 231 238 125 156 166 182 182 207 206 162 222 194 141 103 235 254 232 129 125 222 179 128 312 244 302 79 276 291 285 98 101 185 235 243 269 250 214 218 220 228 222 233 240 237 258 261 268 275 279
235 233 253 264 283 307 322 329 338 342 338 17 78 108 2 70 8 134 127 83 57 133 11 158 40 143 205 165 184 155 204 210 175 181 215 216 171 184 207 146 111 97 171 204 245 205 192 147 93 177 181 250 172 183 167 145 145 172 148 202 110 251 265 74 21 320 284 108 351 274 259 249 251 279 263 224 194 215 223 215 219 200 226 242 244 263 257
230 237 246 257 274 293 304 331 345 351 14 110 125 101 177 91 74 322 104 98 285 183 112 171 140 221 208 132 172 195 209 163 162 143 187 199 311 223 156 162 112 132 166 229 216 175 167 131 63 106 61 80 82 35 70 147 160 162 168 156 185 204 194 184 43 301 262 118 339 313 314 300 266 249 241 184 195 209 238 240 213 209 208 218 228 239 235
227 231 235 243 248 260 286 319 357 9 11 43 81 134 186 182 162 79 46 101 292 41 173 49 205 342 122 180 119 354 325 161 231 200 220 137 252 15 178 157 157 148 201 255 3 74 101 103 99 79 72 65 72 62 93 75 40 92 155 139 185 162 207 143 180 243 283 358 325 308 304 298 88 108 152 147 180 199 224 235 206 213 189 220 221 251 286
222 223 227 231 229 239 239 268 17 42 53 210 169 186 192 149 66 84 96 137 189 244 237 219 195 198 187 159 152 167 164 182 191 42 189 166 54 65 142 318 13 202 70 91 120 103 112 115 96 92 62 59 64 57 49 76 63 30 349 178 156 176 164 149 140 233 282 341 307 286 281 275 114 189 184 223 162 198 227 253 246 203 211 238 264 266 264
216 218 219 220 223 228 228 222 125 95 106 117 5 290 155 278 128 132 124 120 184 174 162 256 32 330 314 124 110 77 8 71 69 105 72 126 140 195 213 191 191 37 152 136 142 141 100 89 44 34 18 25 49 66 46 33 31 16 50 354 159 169 166 136 208 239 279 263 43 356 266 323 320 336 69 138 147 236 247 277 251 219 211 213 236 248 254
213 214 214 212 213 218 221 195 158 142 129 115 8 113 115 230 91 105 122 122 274 181 202 72 156 170 146 179 119 98 122 88 101 7 103 356 145 165 126 29 26 350 150 146 73 65 97 106 286 343 275 7 198 265 77 83 29 18 10 353 325 162 85 206 239 170 262 162 220 243 311 318 331 126 171 181 167 176 176 296 290 195 201 201 223 243 254
212 210 210 207 207 210 208 196 177 162 135 116 106 109 144 232 240 133 209 85 181 114 197 212 201 188 148 144 161 119 102 118 168 98 24 4 67 40 17 31 31 117 160 260 149 57 205 94 342 329 320 37 268 277 119 70 41 30 358 332 349 328 289 239 250 236 202 280 301 272 284 292 190 170 27 230 326 82 82 28 288 275 217 187 207 228 241
210 209 207 206 204 203 203 200 187 173 156 141 88 119 196 185 82 74 117 154 129 251 227 213 134 135 147 161 197 172 172 163 168 93 139 88 55 89 73 54 50 250 41 59 43 96 112 208 222 154 243 204 42 3 287 357 143 11 360 2 50 21 54 359 256 227 173 187 223 279 269 257 81 181 203 174 156 147 132 194 272 274 183 187 201 220 232
208 208 206 205 203 201 201 199 193 175 171 165 127 112 316 158 232 47 114 56 157 221 24 108 113 118 103 89 74 273 181 169 173 175 202 191 151 107 99 92 54 81 9 245 359 124 87 74 35 266 311 171 140 228 171 105 241 104 356 31 41 32 76 211 177 215 232 119 190 234 217 259 196 179 176 165 147 162 231 305 329 170 207 192 193 220 235
206 206 206 204 202 202 199 200 192 176 177 177 115 160 280 168 204 100 46 122 146 280 197 179 139 140 198 176 169 147 96 81 71 44 68 36 106 173 149 156 139 287 230 238 158 81 78 161 203 196 228 148 282 63 248 141 195 215 159 145 148 185 197 200 232 228 225 206 270 315 279 257 206 193 145 134 168 169 335 250 315 182 182 181 181 220 223
207 205 205 204 202 201 201 197 191 178 179 158 111 26 252 141 180 81 99 88 139 239 206 279 343 195 132 68 81 151 206 168 158 140 130 152 212 162 137 196 221 156 289 183 114 202 181 233 15 235 222 178 153 209 128 143 210 70 127 103 106 221 143 113 65 218 221 226 226 250 277 266 141 41 140 156 150 219 234 235 289 139 200 180 198 224 228
211 208 206 204 202 200 200 196 192 184 172 167 149 197 112 151 227 227 232 222 156 251 205 207 177 199 194 158 145 143 119 78 214 131 172 151 151 151 123 117 217 96 113 112 207 169 190 224 186 131 254 186 226 131 52 256 129 172 189 212 202 171 156 189 192 176 54 59 274 300 272 273 115 121 92 281 225 241 118 231 248 177 229 231 243 223 244
212 210 208 206 204 201 199 197 192 188 178 173 165 140 235 131 193 187 207 134 157 268 278 117 316 254 179 214 200 168 166 188 164 183 202 122 175 164 158 215 172 167 182 174 187 198 188 217 180 200 280 147 169 126 222 159 278 246 188 199 188 162 217 183 231 182 182 179 190 211 219 113 174 158 176 187 223 243 226 325 290 280 282 274 269 271 266
209 207 205 204 203 201 199 198 194 190 182 174 164 128 231 169 176 227 254 134 227 227 216 310 214 247 245 256 206 205 216 57 201 102 137 129 221 225 37 105 158 176 170 125 74 32 267 129 60 153 202 193 12 228 155 162 240 242 314 118 261 180 206 175 209 168 183 208 217 232 306 176 195 214 245 238 225 245 269 277 268 287 268 263 269 268 263
211 209 206 204 201 200 198 198 194 191 184 176 169 183 201 140 169 148 47 235 295 287 284 298 235 246 262 249 227 220 200 137 132 154 161 124 175 235 199 160 200 193 124 245 191 151 150 147 211 167 322 200 174 151 297 256 295 218 246 202 277 206 211 68 325 230 257 278 262 281 266 212 220 242 258 268 271 257 250 246 266 244 251 251 254 258 264
211 209 208 206 203 199 198 197 194 192 188 182 180 185 190 160 150 127 67 68 79 314 293 196 89 248 226 255 213 171 141 190 207 184 210 126 160 209 356 266 49 65 249 218 19 149 166 158 209 127 238 204 116 171 165 216 230 247 298 302 238 227 199 164 228 123 63 274 142 217 237 251 244 229 235 243 248 255 252 260 249 259 262 264 252 255 260
211 211 208 206 203 201 198 197 195 192 190 186 185 111 83 113 166 171 143 211 236 163 246 330 235 254 13 168 358 195 220 170 120 166 173 208 218 187 206 180 168 173 207 167 163 89 81 147 178 162 224 226 160 234 165 231 259 160 256 243 153 272 181 187 227 213 203 250 234 231 242 262 262 237 256 251 244 235 228 229 240 252 261 261 266 270 270
210 210 209 208 205 201 199 197 195 193 189 188 181 181 193 194 168 134 73 58 89 129 255 264 271 346 323 346 264 209 169 150 174 167 194 193 152 248 132 117 102 45 90 98 192 201 153 155 152 184 185 261 183 213 187 200 182 169 231 248 162 174 115 229 164 202 251 278 274 262 277 277 268 258 245 243 253 260 262 259 253 252 254 252 256 247 256
210 209 208 207 206 204 200 198 195 194 190 186 186 192 192 177 159 172 175 166 147 270 205 252 275 300 32 280 252 53 99 164 172 182 159 154 141 114 123 143 125 138 132 89 9 109 73 106 160 227 173 246 142 221 154 198 185 219 252 229 130 105 238 179 123 232 248 236 251 112 188 266 254 235 239 243 247 250 252 254 255 251 254 251 258 262 257
210 210 208 207 205 204 203 200 197 193 191 187 189 197 195 185 189 187 173 171 202 230 96 280 273 263 245 249 303 8 72 169 175 187 185 172 153 152 152 154 137 130 158 150 187 190 184 194 230 134 106 244 133 238 146 16 38 286 259 236 172 210 230 147 217 184 230 247 243 177 233 256 263 280 291 262 256 242 246 257 263 268 265 265 262 267 274
211 210 208 207 205 203 202 200 198 193 188 185 187 196 215 208 186 191 185 194 186 161 283 258 280 311 280 217 87 62 14 114 175 191 176 159 173 170 163 169 171 155 110 115 93 118 190 233 122 166 188 193 143 243 112 193 187 224 247 207 191 229 227 220 230 235 255 259 266 234 223 250 273 269 266 272 263 249 255 262 265 268 271 272 267 265 270
213 211 210 208 206 203 201 198 195 191 183 178 161 176 214 244 190 192 190 188 185 111 229 261 283 277 1 23 222 165 82 88 141 149 169 165 183 184 175 164 178 168 145 177 169 225 214 196 238 277 278 213 188 175 187 171 209 234 254 233 224 228 231 241 243 230 247 256 263 257 251 266 273 275 265 265 267 266 264 265 266 271 268 262 264 268 262
215 214 211 210 207 204 200 197 192 187 178 174 160 188 205 238 187 173 183 187 160 156 200 128 250 3 302 241 144 186 166 133 138 137 162 176 188 175 235 80 27 176 192 186 216 239 89 240 143 241 117 221 182 178 208 144 249 282 253 228 228 222 228 240 243 237 247 260 265 269 273 270 277 288 271 255 262 263 264 266 261 255 259 264 255 258 269
218 214 214 212 209 206 202 198 193 185 184 184 189 197 185 214 136 166 176 162 151 120 145 316 289 234 249 261 253 338 111 117 98 103 130 139 170 173 181 234 212 202 238 177 221 54 233 178 204 201 149 184 168 253 175 200 223 247 258 187 209 213 227 240 248 248 245 252 267 284 274 259 247 241 260 258 248 264 262 263 265 270 253 243 253 261 265
220 219 217 216 212 209 205 201 196 190 195 201 213 215 66 148 153 165 157 145 124 163 163 168 234 253 260 234 105 251 140 104 98 95 186 173 173 140 199 42 11 296 250 125 211 215 214 144 150 226 216 148 193 218 203 209 224 244 244 213 231 215 233 240 250 253 247 243 205 233 263 272 247 231 247 263 263 262 270 271 272 271 269 269 269 271 269
221 219 219 218 216 213 209 205 200 198 204 198 214 216 172 173 161 150 141 131 113 141 125 180 224 214 237 94 346 189 144 149 185 157 180 106 220 131 189 86 203 192 222 197 262 195 253 115 198 228 48 218 192 212 242 229 233 245 250 243 248 240 240 259 256 255 247 238 228 234 251 265 278 278 272 270 268 266 265 268 271 275 271 266 267 263 265
223 224 222 221 220 219 215 207 201 200 201 214 238 222 119 153 153 152 149 146 130 203 184 235 202 240 236 212 225 208 142 110 163 182 181 159 47 158 159 149 162 194 261 76 281 201 195 218 123 217 222 125 193 225 235 240 242 239 248 251 247 247 257 262 263 251 252 252 250 253 255 263 273 275 269 264 263 265 269 265 253 255 265 259 256 266 267
226 226 228 222 224 221 222 208 200 181 214 212 221 130 141 163 165 166 172 168 133 159 186 212 178 225 209 225 219 196 129 71 96 68 101 119 51 358 115 145 221 234 74 207 236 134 198 137 120 248 137 193 226 203 227 233 245 247 224 239 240 218 227 231 245 262 255 241 239 246 255 258 257 263 270 270 265 263 256 264 265 251 255 266 264 260 264
226 228 227 229 224 127 191 206 173 205 222 162 148 148 138 123 44 167 255 319 320 46 163 166 206 225 198 210 57 211 147 161 149 101 150 157 177 153 135 231 235 147 189 239 220 195 231 56 254 262 229 223 236 204 230 245 241 240 232 232 239 228 235 239 242 257 271 264 255 256 252 251 257 260 264 269 266 259 258 251 249 249 249 251 257 260 255
226 224 210 129 87 179 195 219 205 128 105 112 104 84 77 96 162 173 344 321 294 354 288 217 238 226 101 171 222 154 126 171 119 141 156 185 134 189 190 211 228 178 236 244 234 141 118 205 228 238 259 247 237 237 223 236 239 237 245 243 240 233 231 237 234 238 251 269 270 254 254 256 253 256 254 263 264 254 242 241 247 244 244 251 252 255 267
219 187 130 161 159 191 195 204 136 122 118 107 59 86 84 253 109 170 197 185 223 233 214 223 235 210 173 190 189 131 177 150 144 172 161 195 142 219 168 188 225 175 266 289 256 147 201 231 249 246 259 253 180 233 232 236 244 240 235 235 236 239 235 236 222 221 228 234 245 256 243 242 256 263 248 242 257 253 244 243 243 241 239 246 251 252 255
117 184 175 172 209 202 91 138 132 114 115 87 335 116 143 183 172 199 139 172 252 242 186 231 226 202 177 194 180 196 199 155 170 182 163 166 226 174 183 130 225 164 221 234 229 150 174 232 233 247 261 251 185 235 232 209 231 240 234 237 237 239 234 230 230 223 230 243 250 258 263 257 253 258 267 267 265 271 273 254 240 247 245 243 246 246 247
178 112 177 206 178 127 142 135 48 66 91 113 76 334 138 169 206 177 158 207 219 230 203 227 101 172 187 182 166 191 191 58 30 85 146 184 186 95 170 190 202 159 237 234 215 119 168 268 256 239 253 237 147 221 184 204 224 233 228 225 230 235 237 235 234 229 226 241 249 253 255 255 252 250 252 254 258 259 259 265 264 254 251 254 249 244 246
188 173 179 107 91 113 128 68 127 102 49 195 161 192 174 174 112 199 205 190 212 204 233 186 212 196 190 173 180 131 153 174 134 146 143 204 206 166 206 181 265 195 222 212 109 117 161 236 245 252 256 143 203 168 178 205 219 219 229 218 225 231 235 236 235 233 223 231 242 248 251 250 247 241 241 244 247 248 254 257 259 258 252 252 255 258 254
101 107 114 101 149 214 149 169 213 148 160 172 144 190 184 180 204 185 215 232 285 226 247 68 355 82 32 113 258 208 177 168 149 195 186 201 126 100 179 207 193 224 214 78 125 134 222 237 247 250 272 202 194 185 207 210 212 211 224 217 218 224 223 227 230 233 225 222 234 240 246 249 248 244 239 238 245 257 255 248 248 256 261 259 255 253 251
139 139 113 160 138 236 205 226 186 111 255 195 159 194 175 197 203 193 215 208 174 207 204 158 190 150 180 181 162 140 88 309 160 106 211 186 152 169 187 211 209 248 55 99 189 218 230 238 244 260 246 197 221 205 210 208 211 218 231 234 225 228 226 231 237 241 240 231 232 241 246 250 254 258 246 231 231 238 250 258 253 244 255 263 263 257 250
152 228 145 170 211 196 198 240 195 169 188 195 183 195 183 205 197 200 208 173 131 185 143 152 162 177 170 148 66 282 164 175 162 180 210 168 209 207 193 207 160 144 177 198 228 253 254 249 246 248 249 244 238 221 206 208 202 207 223 235 229 222 220 223 231 229 237 227 223 228 237 242 245 252 253 246 237 231 238 251 258 255 249 250 258 265 259
215 187 173 210 208 210 185 203 182 180 250 158 207 188 198 210 195 208 182 100 126 144 175 179 185 165 164 180 161 184 137 144 174 199 161 191 168 205 183 53 75 153 192 208 226 231 234 240 239 244 239 235 242 237 204 210 208 213 208 230 233 218 218 222 229 229 231 230 228 223 233 239 239 243 250 251 248 242 234 241 251 255 257 259 258 256 264
245 221 217 245 229 214 164 197 200 191 166 193 209 195 208 200 201 197 173 153 182 191 169 152 162 179 174 179 147 130 148 164 192 187 144 180 191 160 131 142 202 181 194 216 224 238 242 240 239 243 235 213 230 225 201 209 209 203 215 231 242 237 224 222 231 233 235 232 231 230 232 235 235 236 245 262 263 253 242 237 244 247 246 249 259 265 268
237 191 194 223 218 158 205 218 163 143 202 210 188 201 208 195 196 203 184 187 191 149 141 143 153 149 214 302 231 192 179 179 183 221 181 174 121 125 174 202 205 207 209 216 227 230 237 239 240 242 230 207 222 227 217 214 218 220 224 231 237 242 240 226 227 233 236 231 229 230 234 234 234 232 232 238 251 261 259 245 235 238 241 250 257 261 260
250 209 219 231 237 230 240 203 182 219 196 168 188 200 192 204 213 209 192 173 167 175 169 170 176 156 212 163 191 179 209 180 202 199 158 184 201 188 183 206 193 212 215 216 228 229 235 238 242 220 182 209 211 218 219 218 215 218 223 226 231 233 236 229 223 229 231 228 228 229 232 232 229 231 237 240 247 257 256 253 245 238 235 239 247 254 261
229 235 228 230 339 271 279 257 197 218 170 191 195 200 196 204 208 211 166 183 174 146 114 41 85 185 201 173 204 212 215 192 206 174 204 199 199 181 210 228 208 215 218 216 226 231 235 240 243 246 232 224 220 214 220 224 221 220 223 226 229 234 232 225 225 229 229 228 226 224 228 229 225 225 225 229 233 243 259 265 254 245 245 241 241 245 250
227 245 251 184 225 237 147 208 208 205 200 207 190 203 191 210 202 203 170 169 152 163 170 189 170 172 179 204 154 195 219 156 208 216 204 197 188 196 207 215 210 214 226 225 227 232 236 240 233 240 245 246 235 226 224 226 225 223 224 226 230 232 237 232 232 232 233 231 227 226 229 228 227 225 227 233 247 254 262 266 261 250 248 252 247 239 241
226 230 222 196 221 236 241 274 287 233 224 205 200 198 191 208 199 206 172 177 170 188 193 175 180 196 201 209 194 172 129 203 219 163 214 223 178 206 217 213 214 216 217 225 229 227 230 232 232 230 232 238 239 237 230 229 232 236 235 233 230 229 230 234 234 233 235 235 224 219 227 233 236 230 227 230 239 242 249 257 258 254 246 243 247 242 235